Location: Les Moreaux
(47.2278°N, 1.4966°E)
Time: 19:59:14
(UTC+00:00)

Cosmos 1766 Rocket - Pass Details

Date: 19 May 2025
Orbit: 598 x 627 km, 82.5° (Epoch: 18 June)

Event Time Altitude Azimuth Distance (km) Brightness Sun altitude
Rises 21:54:20 0° 354° (N) 2,906 8.3 -17.9°
Reaches altitude 10° 21:56:38 10° 359° (N) 1,991 7.1 -18.1°
Maximum altitude 22:00:58 56° 78° (ENE) 732 3.8 -18.4°
Enters shadow 22:02:15 40° 133° (SE) 913 3.9 -18.5°
